This demonstration page uses our WeatherBlox Daily Observations layout. Learn more.

Left ArrowRight Arrow

38.88101, -77.10428

Hourly Observations for December 27, 2015

Temp ( °F °C ) Dew Point ( °F °C ) Humidity (%) Winds ( mph kmh ) Pressure ( in mb ) Visibility ( mi km ) Precip ( " mm )
12:21 am 00:21 Cloudy with Drizzle 52 11.1 50 10 93 93 SE 5 7 30.24 1024 4 6 N/A
12:37 am 00:37 Cloudy 52 11.1 50 10 93 93 SE 3 6 30.24 1024 7 11 N/A
12:52 am 00:52 Cloudy with Drizzle 52 11.1 51 10.6 97 97 N N/A 30.23 1024 5 8 N/A
1:35 am 01:35 Cloudy with Drizzle 52 11.1 51 10.6 97 97 SSE 3 6 30.21 1023 3 5 N/A
1:52 am 01:52 Cloudy with Drizzle 52 11.1 51 10.6 97 97 SSW 3 6 30.21 1023 3 5 N/A
2:52 am 02:52 Cloudy with Drizzle 51 10.6 51 10.6 100 100 S 3 6 30.20 1023 3 5 N/A
3:19 am 03:19 Cloudy with Drizzle 52 11.1 51 10.6 97 97 SSW 5 7 30.18 1022 2 3 N/A
3:52 am 03:52 Cloudy with Mist and Fog 52 11.1 51 10.6 97 97 N N/A 30.16 1021 2 3 N/A
4:30 am 04:30 Cloudy 52 11 52 11 100 100 SSW 6 9 30.15 1021 8 13 N/A
4:52 am 04:52 Cloudy with Mist and Fog 52 11.1 51 10.6 97 97 S 7 11 30.13 1020 6 10 N/A
5:52 am 05:52 Cloudy 52 11.1 51 10.6 97 97 S 14 22 30.11 1020 8 13 N/A
6:43 am 06:43 Cloudy 53 11.7 52 11.1 96 96 S 7 11 30.09 1019 10 16 N/A
6:52 am 06:52 Cloudy 53 11.7 52 11.1 96 96 S 9 15 30.10 1019 10 16 N/A
7:52 am 07:52 Cloudy 54 12.2 52 11.1 93 93 S 14 22 30.08 1019 10 16 N/A
8:52 am 08:52 Cloudy 55 12.8 53 11.7 93 93 S 20 31 30.06 1018 10 16 N/A
9:52 am 09:52 Cloudy 56 13.3 55 12.8 97 97 S 17 28 30.05 1018 9 14 N/A
9:59 am 09:59 Cloudy with Mist and Fog 56 13.3 55 12.8 97 97 S 17 28 30.06 1018 4 6 N/A
10:52 am 10:52 Cloudy with Mist and Fog 58 14.4 57 13.9 97 97 S 17 28 30.01 1016 4 6 N/A
11:39 am 11:39 Cloudy with Mist and Fog 61 16.1 59 15 93 93 SSW 14 22 29.97 1015 6 10 N/A
11:52 am 11:52 Cloudy 62 16.7 59 15 90 90 SSW 15 24 29.97 1015 10 16 N/A
12:14 pm 12:14 Cloudy 64 18 61 16 88 88 SSW 17 28 29.94 1014 10 16 N/A
12:52 pm 12:52 Cloudy 66 18.9 61 16.1 84 84 SSW 15 24 29.93 1013 10 16 N/A
1:09 pm 13:09 Mostly Cloudy 66 19 63 17 88 88 SSW 20 31 29.91 1013 10 16 N/A
1:52 pm 13:52 Mostly Cloudy 68 20 62 16.7 81 81 SSW 18 30 29.88 1012 10 16 N/A
2:15 pm 14:15 Mostly Cloudy 69 20.6 62 16.7 78 78 SSW 15 24 29.88 1012 10 16 N/A
2:52 pm 14:52 Mostly Cloudy 69 20.6 62 16.7 78 78 SSW 17 28 29.87 1012 10 16 N/A
3:52 pm 15:52 Mostly Cloudy 69 20.6 62 16.7 78 78 SSW 14 22 29.87 1012 10 16 N/A
4:52 pm 16:52 Mostly Cloudy 67 19.4 61 16.1 81 81 S 10 17 29.88 1012 10 16 N/A
5:52 pm 17:52 Mostly Cloudy 69 20.6 62 16.7 78 78 SSW 8 13 29.89 1012 10 16 N/A
6:52 pm 18:52 Mostly Cloudy 66 18.9 61 16.1 84 84 S 7 11 29.91 1013 10 16 N/A
7:52 pm 19:52 Cloudy with Light Rain 69 20.6 64 17.8 84 84 NNW 14 22 29.95 1014 9 14 N/A
8:04 pm 20:04 Cloudy with Rain 66 19 64 18 94 94 NNW 8 13 29.97 1015 5 8 N/A
8:16 pm 20:16 Cloudy with Light Rain 68 20 65 18.3 90 90 W 3 6 29.94 1014 8 13 0.02 0.51
8:52 pm 20:52 Cloudy with Light Rain 67 19.4 65 18.3 93 93 WSW 7 11 29.98 1015 10 16 0.02 0.51
9:05 pm 21:05 Cloudy 67 19.4 64 17.8 91 91 W 7 11 30.00 1016 10 16 N/A
9:35 pm 21:35 Cloudy 66 18.9 60 15.6 81 81 NNW 18 30 30.03 1017 10 16 N/A
9:52 pm 21:52 Cloudy 65 18.3 57 13.9 76 76 NNW 20 31 30.03 1017 10 16 N/A
10:06 pm 22:06 Cloudy with Light Rain 63 17 57 14 83 83 N 14 22 30.03 1017 10 16 N/A
10:23 pm 22:23 Cloudy 62 16.7 56 13.3 80 80 N 15 24 30.06 1018 10 16 N/A
10:52 pm 22:52 Cloudy 61 16.1 56 13.3 84 84 N 10 17 30.07 1018 10 16 N/A
11:45 pm 23:45 Cloudy 60 15.6 55 12.8 84 84 N 14 22 30.09 1019 10 16 N/A
11:52 pm 23:52 Cloudy 60 15.6 54 12.2 80 80 N 13 20 30.10 1019 10 16 N/A

Powered by AerisWeather